[[{"header":{"parameterUnit":"m.s-1","parameterCategory":1,"la1":30.2992,"la2":30.254,"lo1":-89.0895,"lo2":-89.0443,"dy":0.0025,"dx":0.0025,"nx":19,"ny":19,"refTime":"2026-03-26T21:00:00:Z","depth":0,"parameterNumber":2,"parameterNumberName":"U-component_of_WINDS"},"data":[0,0,0,1.2548,1.2549,1.2611,1.2612,1.2679,1.2679,0,0,0,0,0,0,0,0,0,0,0,1.2519,1.2519,1.2548,1.2549,1.2611,1.2612,1.2679,1.2679,0,0,0,0,0,0,0,0,0,0,0,1.2519,1.2519,1.2519,1.2549,1.2611,1.2612,1.2678,1.2636,0,0,0,0,0,0,0,0,0,0,1.2578,1.2542,1.2519,1.2519,1.2549,1.2611,1.2612,1.2635,1.2639,1.2644,0,1.2645,0,1.2663,1.2683,1.2683,0,0,0,1.2556,1.2538,1.2564,1.2519,1.255,1.2611,1.2585,1.2637,1.2642,1.265,1.2646,1.2649,1.2664,1.2683,1.2683,1.2684,1.2684,0,0,1.2553,1.2526,1.256,1.2566,1.2554,1.2583,1.2587,1.264,1.2635,1.2646,1.265,1.2665,1.2683,1.2684,1.2685,1.2684,0,0,0,1.2538,1.2523,1.2548,1.2563,1.2575,1.2585,1.2589,1.2632,1.2643,1.2651,1.2666,1.2684,1.2684,1.2685,1.2684,1.264,0,0,0,1.2536,1.2514,1.2546,1.2529,1.2574,1.2604,1.258,1.2639,1.2646,1.2665,1.2684,1.2685,1.2685,1.2685,1.2642,1.2624,0,0,0,1.2519,1.2512,1.2518,1.2528,1.2554,1.2604,1.2618,1.2641,1.2654,1.2683,1.2685,1.2686,1.2685,1.2644,1.2627,1.2617,0,0,0,1.2492,1.2478,1.2516,1.2506,1.2553,1.2575,1.2618,1.2636,1.2655,1.2684,1.2685,1.2684,1.2645,1.2629,1.2619,1.2604,1.2594,0,0,1.2459,1.2473,1.2469,1.2505,1.2514,1.2568,1.2571,1.2615,1.2644,1.267,1.267,1.2642,1.2628,1.2617,1.2552,1.2544,0,0,0,1.2449,1.2446,1.2454,1.247,1.2503,1.253,1.2577,1.2593,1.2617,1.2651,1.2636,1.2628,1.2623,1.2617,1.2611,1.2609,1.268,1.268,1.2681,1.2362,1.2399,1.2395,1.244,1.2455,1.2503,1.252,1.2551,1.2584,1.2579,1.2588,1.2543,1.2535,1.253,1.2528,1.2582,1.2582,1.2582,1.2582,1.2317,1.2319,1.2363,1.2375,1.2414,1.2426,1.2472,1.2495,1.2512,1.254,1.2538,1.2565,1.2521,1.2521,1.2579,1.2579,1.258,1.258,1.258,1.2265,1.2273,1.2292,1.2321,1.2339,1.2385,1.2399,1.2435,1.2468,1.2466,1.2479,1.248,1.2486,1.247,1.2469,1.2469,1.2469,1.2469,1.2469,1.2204,1.2228,1.2235,1.2268,1.2284,1.231,1.2359,1.2376,1.2404,1.2429,1.2429,1.2463,1.2509,1.2521,1.2467,1.2467,1.2467,1.2468,1.2468,1.2146,1.2164,1.2175,1.2191,1.2235,1.2251,1.2296,1.2328,1.2347,1.2354,1.2388,1.2416,1.2433,1.2439,1.2448,1.2379,1.2379,1.2379,1.2379,1.2102,1.2114,1.2134,1.2157,1.2184,1.2226,1.2239,1.2277,1.232,1.2335,1.235,1.2365,1.2369,1.2385,1.2391,1.2401,1.2321,1.2321,1.2321,1.2069,1.2085,1.2089,1.213,1.2167,1.2198,1.2212,1.2238,1.2291,1.2319,1.2347,1.235,1.2375,1.2382,1.2411,1.242,1.2439,0,0]},{"header":{"parameterUnit":"m.s-1","parameterCategory":1,"la1":30.2992,"la2":30.254,"lo1":-89.0895,"lo2":-89.0443,"dy":0.0025,"dx":0.0025,"nx":19,"ny":19,"refTime":"2026-03-26T21:00:00:Z","depth":0,"parameterNumber":3,"parameterNumberName":"V-component_of_WINDS"},"data":[0,0,0,1.2163,1.2163,1.2173,1.2174,1.2181,1.2181,0,0,0,0,0,0,0,0,0,0,0,1.2159,1.2159,1.2162,1.2163,1.2173,1.2174,1.2181,1.2181,0,0,0,0,0,0,0,0,0,0,0,1.2159,1.2159,1.2159,1.2163,1.2173,1.2174,1.2181,1.2174,0,0,0,0,0,0,0,0,0,0,1.2165,1.2162,1.2159,1.2159,1.2163,1.2173,1.2174,1.2174,1.2175,1.2175,0,1.2177,0,1.2179,1.2182,1.2182,0,0,0,1.2163,1.2161,1.2165,1.2159,1.2163,1.2173,1.2169,1.2175,1.2175,1.2175,1.2177,1.2177,1.2179,1.2182,1.2182,1.2185,1.2185,0,0,1.2162,1.216,1.2164,1.2165,1.2167,1.2168,1.2169,1.2175,1.2176,1.2177,1.2178,1.2179,1.2182,1.2182,1.2185,1.2185,0,0,0,1.216,1.216,1.2163,1.2165,1.2167,1.2169,1.2169,1.2176,1.2177,1.2178,1.218,1.2182,1.2182,1.2185,1.2185,1.2184,0,0,0,1.216,1.2159,1.2163,1.2162,1.2167,1.2172,1.217,1.2176,1.2177,1.2179,1.2182,1.2182,1.2185,1.2185,1.2184,1.2184,0,0,0,1.2158,1.2159,1.216,1.2162,1.2167,1.2172,1.2174,1.2177,1.2178,1.2182,1.2182,1.2185,1.2185,1.2184,1.2184,1.2182,0,0,0,1.2155,1.216,1.216,1.2166,1.2166,1.2173,1.2174,1.2178,1.2181,1.2182,1.2185,1.2185,1.2184,1.2184,1.2182,1.2181,1.218,0,0,1.216,1.2161,1.2164,1.2164,1.217,1.2171,1.2175,1.2179,1.218,1.2182,1.2182,1.2184,1.2184,1.2182,1.2179,1.2179,0,0,0,1.2165,1.2167,1.2169,1.2172,1.2175,1.2176,1.218,1.218,1.2182,1.2182,1.2184,1.2184,1.2183,1.2182,1.2182,1.218,1.2185,1.2185,1.2185,1.217,1.2171,1.2174,1.2176,1.2178,1.218,1.2181,1.2181,1.2182,1.2182,1.2183,1.2181,1.218,1.218,1.2178,1.2183,1.2183,1.2183,1.2183,1.2175,1.2178,1.2177,1.218,1.218,1.2182,1.2181,1.2181,1.2181,1.2182,1.2181,1.2181,1.2179,1.2178,1.2183,1.2183,1.2183,1.2183,1.2183,1.2178,1.2179,1.218,1.2181,1.2182,1.2182,1.2181,1.2181,1.218,1.2179,1.2178,1.2178,1.2176,1.2179,1.2179,1.2179,1.2179,1.2179,1.2179,1.218,1.2181,1.2181,1.2182,1.2182,1.2182,1.218,1.2179,1.2177,1.2177,1.2177,1.2175,1.218,1.218,1.2179,1.2179,1.2179,1.2179,1.2179,1.2184,1.2183,1.2183,1.2183,1.2182,1.218,1.2179,1.2176,1.2175,1.2173,1.2171,1.2175,1.2175,1.2175,1.2175,1.2173,1.2173,1.2173,1.2173,1.2186,1.2185,1.2184,1.2183,1.2181,1.2179,1.2176,1.2173,1.2169,1.2167,1.2168,1.2168,1.2168,1.2168,1.2168,1.2168,1.2164,1.2164,1.2164,1.2187,1.2186,1.2185,1.2183,1.2181,1.2178,1.2173,1.2169,1.2165,1.2163,1.2165,1.2166,1.2166,1.2167,1.2166,1.2167,1.2167,0,0]}]]